Location: Chuathbaluk
(61.5726°N, 159.2454°W)
Time: 10:52:05
(UTC+00:00)

Max Valier Satellite - Visible Passes

Search period start: 17 January 2021 00:00
Search period end: 27 January 2021 00:00
Orbit: 488 x 504 km, 97.3° (Epoch: 16 January)

Date Brightness Start Highest point End Pass type
(mag) Time Alt. Az. Time Alt. Az. Time Alt. Az.
17 Jan ? 18:31:55 10° ENE 18:33:14 12° E 18:34:34 10° ESE visible
22 Jan ? 05:35:19 10° N 05:35:19 10° N 05:35:23 10° N visible
23 Jan ? 05:14:13 11° N 05:14:13 11° N 05:14:23 10° N visible
24 Jan ? 04:53:08 11° NNE 04:53:08 11° NNE 04:53:16 10° N visible
24 Jan ? 06:27:43 11° NNW 06:27:43 11° NNW 06:27:49 10° NNW visible
25 Jan ? 06:06:38 12° N 06:06:38 12° N 06:06:58 10° N visible
26 Jan ? 05:45:32 13° N 05:45:32 13° N 05:46:03 10° N visible
